Regional Weather Roundup
Issued by NWS

Home | Current Version | Previous Version | Text Only | Print | Product List | Glossary On
Versions: 1 2 3 4 5 6 7 8 9 10 11 12 13 14 15 16 17 18 19 20 21 22 23 24 25 26 27 28 29 30 31 32 33 34 35 36 37 38 39 40 41 42 43 44 45 46 47 48 49 50
000
ASUS43 KOAX 041810
RWRNE

WEATHER ROUNDUP FOR NEBRASKA
NATIONAL WEATHER SERVICE OMAHA NE
1200 PM CST WED MAR 04 2015

NOTES: SATELLITE DATA IS BEING USED TO AUGMENT CLOUD COVER ABOVE
       12000 FEET.
       "FAIR" INDICATES FEW OR NO CLOUDS BELOW 12,000 FEET WITH NO
       SIGNIFICANT WEATHER AND/OR OBSTRUCTIONS TO VISIBILITY.

  * THESE STATIONS DO NOT REPORT WEATHER SUCH AS RAIN...SNOW OR FOG.

NEZ001>004-019>022-054>056-041900-
NEBRASKA PANHANDLE

CITY           SKY/WX    TMP DP  RH WIND       PRES   REMARKS
SCOTTSBLUFF    SUNNY     23   2  40 W21       30.19S WCI   8
6HR MIN TEMP:   6; 6HR MAX TEMP:  24;

ALLIANCE       SUNNY     20   2  45 N21G28    30.18S WCI   4
6HR MIN TEMP:  -2; 6HR MAX TEMP:  20;

CHADRON        CLOUDY    15   0  51 NW20G26   30.24S WCI  -2
6HR MIN TEMP:  -9; 6HR MAX TEMP:  15;

KIMBALL        CLOUDY    20   0  42 W8        30.12F WCI  10
SIDNEY         SUNNY     20   1  43 N14       30.18F WCI   7
6HR MIN TEMP:   8; 6HR MAX TEMP:  20;

$$

NEZ057>060-069>072-079>082-041900-
SOUTHWEST NEBRASKA

CITY           SKY/WX    TMP DP  RH WIND       PRES   REMARKS
NORTH PLATTE   MOSUNNY   26   3  37 NW21      30.25F WCI  12
6HR MIN TEMP:   5; 6HR MAX TEMP:  26;

IMPERIAL         N/A     23   5  46 NW12      30.24F WCI  12
6HR MIN TEMP:  11; 6HR MAX TEMP:  23;

LEXINGTON      SUNNY     24  13  63 W8        30.27F WCI  14
MCCOOK         SUNNY     26  11  52 N6        30.29S WCI  19
6HR MIN TEMP:  14; 6HR MAX TEMP:  27;

OGALLALA       SUNNY     24   8  50 NW12G20   30.23F WCI  13
$$

NEZ005>010-023>029-035>040-094-041900-
NORTH CENTRAL NEBRASKA

CITY           SKY/WX    TMP DP  RH WIND       PRES   REMARKS
VALENTINE      SUNNY     18   2  49 NW16G25   30.26F WCI   3
6HR MIN TEMP:   1; 6HR MAX TEMP:  18;

AINSWORTH      MOSUNNY   18  -1  43 NW17G23   30.26S WCI   2
BROKEN BOW     SUNNY     25   2  37 NW13G24   30.25S WCI  14
6HR MIN TEMP:   6; 6HR MAX TEMP:  25;

O`NEILL        SUNNY     20  -2  38 W20G25    30.29S WCI   4
ORD            MOSUNNY   26  -3  28 NW21G26   30.27S WCI  12
6HR MIN TEMP:   8; 6HR MAX TEMP:  26;

THEDFORD       MOSUNNY   23   3  42 NW9G18    30.25R WCI  13
$$

NEZ041-046>049-061>064-073>077-083>087-041900-
SOUTH CENTRAL NEBRASKA

CITY           SKY/WX    TMP DP  RH WIND       PRES   REMARKS
GRAND ISLAND   FAIR      26   8  46 NW20      30.29F WCI  12
6HR MIN TEMP:   9; 6HR MAX TEMP:  26;

AURORA         FAIR      27  10  49 NW17G24   30.28F WCI  14
HASTINGS       FAIR      24   8  50 NW17      30.28F WCI  11
6HR MIN TEMP:   8; 6HR MAX TEMP:  24; 6HR PCP: TRACE;

HEBRON         FAIR      26  11  52 N12       30.33F WCI  16
HOLDREGE       FAIR      23   9  53 NW8       30.29S WCI  14
KEARNEY *      FAIR      23   7  50 NW13      30.29S WCI  11
YORK           FAIR      27  10  50 NW15G26   30.28F WCI  15
$$

NEZ011>018-030>034-042>045-041900-
NORTHEAST NEBRASKA

CITY           SKY/WX    TMP DP  RH WIND       PRES   REMARKS
NORFOLK        FAIR      24  -3  30 N25       30.28S WCI   8
6HR MIN TEMP:  12; 6HR MAX TEMP:  25;

ALBION         FAIR      25  -4  28 NW21G29   30.29R WCI  10
BLAIR          FAIR      29   1  29 NW20G36   30.26S WCI  16
COLUMBUS *     FAIR      28   0  29 NW21G31   30.30S WCI  15
FREMONT        FAIR      31   0  26 NW24G36   30.29S WCI  17
TEKAMAH        FAIR      29   1  30 NW25G33   30.30R WCI  14
6HR MIN TEMP:  11; 6HR MAX TEMP:  30;

WAYNE          FAIR      23  -4  30 NW22G31   30.31R WCI   8
$$

NEZ050>053-065>068-078-088>093-041900-
SOUTHEAST NEBRASKA

CITY           SKY/WX    TMP DP  RH WIND       PRES   REMARKS
LINCOLN        FAIR      28  11  48 N20       30.30F WCI  15
6HR MIN TEMP:  13; 6HR MAX TEMP:  28; 6HR PCP: TRACE;

OMAHA EPPLEY   FAIR      31   2  29 NW20G28   30.28F WCI  19
6HR MIN TEMP:  15; 6HR MAX TEMP:  31;

BEATRICE       FAIR      27  10  47 N18G24    30.31F WCI  14
FALLS CITY     MIX PCPN  27   4  37 NW10G23   30.32F WCI  17
6HR MIN TEMP:  15; 6HR MAX TEMP:  28; 6HR PCP: TRACE;

NEBRASKA CITY  FAIR      27  10  49 N13G20    30.28F WCI  16
PLATTSMOUTH    FAIR      27   6  40 NW13G20   30.28F WCI  16
$$

NEZ044-045-051>053-067-041900-
OMAHA AREA

CITY           SKY/WX    TMP DP  RH WIND       PRES   REMARKS
OMAHA EPPLEY   FAIR      31   2  29 NW20G28   30.28F WCI  19
6HR MIN TEMP:  15; 6HR MAX TEMP:  31;

BLAIR          FAIR      29   1  29 NW20G36   30.26S WCI  16
FREMONT        FAIR      31   0  26 NW24G36   30.29S WCI  17
MILLARD        FAIR      31   4  31 N16G24    30.29F WCI  19
OFFUTT AFB     FAIR      28   5  37 NW15G21   30.28F WCI  17
PLATTSMOUTH    FAIR      27   6  40 NW13G20   30.28F WCI  16
WAHOO          FAIR      30   4  33 NW23G31   30.28F WCI  16
$$



USA.gov is the U.S. government's official web portal to all federal, state and local government web resources and services.